COSMOS 1275 DEB, 12725

Orbit data source: Space-Track

COSMOS 1275 DEB, 12725 is space debris in LEO originally from a launch on Thu, 04 Jun 1981 UTC launched from the Plesetsk Missile And Space Complex (PKMTR). Debris objects in space refer to the collection of defunct objects orbiting the Earth. Examples of debris include non-operational satellites, rocket bodies, and fragments generated from explosions, collisions, or faulty payload assembly.

Loading next visibility...
Identifier
12725, 1981-053BS
Orbit
LEO
Country
Flag of CISCIS
Related business
Manufacturer
Unknown
Mission
Spacecraft
Bus & Motor
Unknown
Mass
Unknown
Launch date (UTC)
1981-06-04 (45 years ago)
Launch vehicle
Unknown
Launch site
Plesetsk Missile And Space Complex (PKMTR)
Object type
Payload
Rocket body
Debris
Shape & HBR
Unknown shape, 0.1 m
Radar Cross Section
Small (<0.1 m²)

Expand to show TLE details & history
Last TLE update: 14 hours ago

TLE from 14 hours ago
0 COSMOS 1275 DEB
1 12725U 81053BS  25351.43331457  .00001443  00000-0  12182-2 0  9998
2 12725  83.1377 107.5302 0094027 166.3659 267.2865 13.85081271216409
Epoch: 2025-12-17T10:23Z
TLE epoch observation values (Epoch: 2025-12-17T10:23:58.378Z)
Latitude
71.38375°
Longitude
-113.94803°
Altitude
962.157 km
Speed
7.375 km/s
True Right ascension
08h 33m 23s
True Declination
71° 16' 56"
Sunlit
Object was in full shadow at epoch
Visualization orbit readout
Latitude
Unknown
Longitude
Unknown
Altitude
Unknown
Speed
Unknown
Apparent Right ascension
Unknown
Apparent Declination
Unknown
Sunlit
N/A
Visualization observer readout
Local Sidereal Time
23:09:04
Azimuth
Unknown
Elevation
Unknown
Doppler factor
Unknown
Orbital elements
Apogee altitude
1,011.885 km
Perigee altitude
874.207 km
Semi-major axis
7,321.183 km
Eccentricity
0.0094
Inclination
83.1377°
RAAN
107.5302°
Arg. of periapsis
166.3659°
True anomaly
266.2109°
Mean anomaly
267.2865°
Eccentric anomaly
266.74863°
Mean motion
3.46474 °/min
Orbital period
103.9 mins
BSTAR
0.0012182
Loading maneuver chart data...
Computing Atmospheric mass density...
Loading historical data...
Loading historical data...
Loading historical data...
Loading historical data...
Loading historical data...
Loading historical data...
Loading historical data...

Documentation

Showing up to 5 results
|